timestamp,wind_dir_avg,wind_spd_avg,wind_spd_max_dir,wind_spd_gust,battery_voltage,lat,long
2022-09-09 00:04:00+00:00,68.0,4.27,66.0,5.2,12.57,47.59359,-54.27349
2022-09-09 00:14:00+00:00,65.0,5.56,73.0,6.56,12.49,47.59359,-54.27349
2022-09-09 00:24:00+00:00,59.0,4.61,59.0,5.26,12.49,47.59359,-54.27349
2022-09-09 00:34:00+00:00,61.0,4.91,60.0,5.7,12.49,47.59359,-54.27349
2022-09-09 00:44:00+00:00,56.0,5.06,53.0,5.51,12.49,47.59359,-54.27349
2022-09-09 00:54:00+00:00,49.0,5.44,47.0,6.61,12.49,47.59359,-54.27349
2022-09-09 01:04:00+00:00,60.0,4.56,58.0,5.35,12.49,47.59359,-54.27349
2022-09-09 01:14:01+00:00,60.0,4.09,65.0,5.1,12.49,47.59359,-54.27349
2022-09-09 01:24:01+00:00,75.0,3.5,58.0,5.45,12.49,47.59359,-54.27349
2022-09-09 01:34:01+00:00,63.0,1.59,59.0,2.29,12.49,47.59359,-54.27349
2022-09-09 01:44:01+00:00,77.0,1.96,71.0,2.4,12.49,47.59359,-54.27349
2022-09-09 01:54:01+00:00,50.0,0.97,63.0,1.74,12.49,47.59359,-54.27349
2022-09-09 02:04:01+00:00,339.0,2.99,346.0,3.81,12.49,47.59359,-54.27349
2022-09-09 02:14:00+00:00,343.0,3.36,341.0,3.87,12.49,47.59359,-54.27349
2022-09-09 02:24:00+00:00,5.0,2.98,5.0,3.56,12.49,47.59359,-54.27349
2022-09-09 02:34:00+00:00,2.0,3.35,2.0,3.99,12.49,47.59359,-54.27349
2022-09-09 02:44:00+00:00,6.0,3.27,4.0,3.66,12.49,47.59359,-54.27349
2022-09-09 02:54:00+00:00,10.0,3.42,5.0,4.31,12.49,47.59359,-54.27349
2022-09-09 03:04:00+00:00,9.0,3.83,15.0,4.52,12.49,47.59359,-54.27349
2022-09-09 03:14:00+00:00,0.0,4.16,3.0,4.95,12.41,47.59359,-54.27349
2022-09-09 03:24:00+00:00,4.0,4.74,359.0,5.39,12.41,47.59359,-54.27349
2022-09-09 03:34:00+00:00,4.0,4.98,4.0,5.5,12.41,47.59359,-54.27349
2022-09-09 03:44:00+00:00,1.0,5.5,3.0,6.05,12.41,47.59359,-54.27349
2022-09-09 03:54:00+00:00,1.0,4.68,1.0,5.31,12.41,47.59359,-54.27349
2022-09-09 04:04:00+00:00,9.0,4.87,17.0,5.72,12.41,47.59359,-54.27349
2022-09-09 04:14:00+00:00,3.0,4.74,7.0,5.17,12.33,47.59359,-54.27349
2022-09-09 04:24:00+00:00,1.0,4.61,4.0,5.29,12.33,47.59359,-54.27349
2022-09-09 04:34:00+00:00,358.0,4.21,3.0,4.93,12.33,47.59359,-54.27349
2022-09-09 04:44:00+00:00,358.0,3.84,4.0,4.52,12.33,47.59359,-54.27349
2022-09-09 04:54:00+00:00,358.0,3.43,2.0,4.0,12.33,47.59359,-54.27349
2022-09-09 05:04:00+00:00,358.0,3.28,1.0,3.84,12.33,47.59359,-54.27349
2022-09-09 05:14:00+00:00,354.0,2.53,6.0,3.09,12.41,47.59359,-54.27349
2022-09-09 05:24:00+00:00,4.0,3.18,3.0,3.79,12.41,47.59359,-54.27349
2022-09-09 05:34:00+00:00,359.0,3.81,5.0,4.43,12.41,47.59359,-54.27349
2022-09-09 05:44:00+00:00,338.0,4.72,333.0,5.3,12.41,47.59359,-54.27349
2022-09-09 05:54:00+00:00,14.0,3.69,14.0,4.21,12.41,47.59359,-54.27349
2022-09-09 06:04:00+00:00,11.0,4.36,13.0,5.09,12.41,47.59359,-54.27349
2022-09-09 06:14:00+00:00,8.0,4.25,13.0,5.8,12.41,47.59359,-54.27349
2022-09-09 06:24:00+00:00,0.0,4.58,359.0,5.59,12.41,47.59359,-54.27349
2022-09-09 06:34:00+00:00,351.0,5.4,352.0,5.94,12.41,47.59359,-54.27349
2022-09-09 06:44:00+00:00,3.0,4.67,8.0,5.62,12.41,47.59359,-54.27349
2022-09-09 06:54:00+00:00,3.0,4.67,4.0,5.17,12.41,47.59359,-54.27349
2022-09-09 07:04:00+00:00,3.0,4.46,0.0,5.4,12.41,47.59359,-54.27349
2022-09-09 07:14:00+00:00,8.0,4.3,358.0,4.91,12.33,47.59359,-54.27349
2022-09-09 07:24:00+00:00,14.0,4.85,17.0,5.74,12.33,47.59359,-54.27349
2022-09-09 07:34:00+00:00,11.0,5.18,14.0,6.21,12.33,47.59359,-54.27349
2022-09-09 07:44:00+00:00,2.0,4.3,359.0,5.19,12.33,47.59359,-54.27349
2022-09-09 07:54:00+00:00,353.0,3.86,359.0,4.5,12.33,47.59359,-54.27349
2022-09-09 08:04:00+00:00,0.0,3.56,358.0,4.04,12.33,47.59359,-54.27349
2022-09-09 08:14:01+00:00,350.0,3.7,336.0,4.5,12.25,47.59359,-54.27349
2022-09-09 08:24:01+00:00,340.0,3.21,340.0,4.06,12.25,47.59359,-54.27349
2022-09-09 08:34:01+00:00,336.0,2.84,339.0,3.37,12.25,47.59359,-54.27349
2022-09-09 08:44:01+00:00,357.0,2.84,7.0,3.78,12.25,47.59359,-54.27349
2022-09-09 08:54:01+00:00,6.0,3.26,9.0,3.94,12.25,47.59359,-54.27349
2022-09-09 09:04:01+00:00,344.0,4.4,351.0,5.02,12.25,47.59359,-54.27349
2022-09-09 09:14:00+00:00,351.0,4.21,1.0,4.87,12.33,47.59359,-54.27349
2022-09-09 09:24:00+00:00,344.0,3.02,353.0,3.66,12.33,47.59359,-54.27349
2022-09-09 09:34:00+00:00,344.0,3.93,352.0,4.81,12.33,47.59359,-54.27349
2022-09-09 09:44:00+00:00,349.0,4.48,355.0,5.34,12.33,47.59359,-54.27349
2022-09-09 09:54:00+00:00,12.0,4.2,14.0,4.83,12.33,47.59359,-54.27349
2022-09-09 10:04:00+00:00,12.0,4.27,16.0,5.4,12.33,47.59359,-54.27349
2022-09-09 10:14:00+00:00,355.0,4.66,8.0,5.65,12.49,47.59359,-54.27349
2022-09-09 10:24:00+00:00,20.0,3.96,25.0,4.63,12.49,47.59359,-54.27349
2022-09-09 10:34:00+00:00,14.0,3.83,23.0,4.85,12.49,47.59359,-54.27349
2022-09-09 10:44:00+00:00,14.0,3.85,20.0,4.24,12.49,47.59359,-54.27349
2022-09-09 10:54:00+00:00,26.0,4.21,31.0,4.97,12.49,47.59359,-54.27349
2022-09-09 11:04:00+00:00,45.0,4.99,47.0,5.7,12.49,47.59359,-54.27349
2022-09-09 11:14:00+00:00,49.0,4.15,49.0,5.03,13.76,47.59359,-54.27349
2022-09-09 11:24:00+00:00,43.0,4.61,47.0,5.47,13.76,47.59359,-54.27349
2022-09-09 11:34:00+00:00,50.0,3.77,67.0,4.56,13.76,47.59359,-54.27349
2022-09-09 11:44:00+00:00,51.0,3.09,52.0,3.63,13.76,47.59359,-54.27349
2022-09-09 11:54:00+00:00,45.0,4.45,41.0,5.17,13.76,47.59359,-54.27349
2022-09-09 12:04:00+00:00,48.0,3.5,47.0,4.06,13.76,47.59359,-54.27349
2022-09-09 12:14:00+00:00,33.0,4.66,31.0,5.09,13.68,47.59359,-54.27349
2022-09-09 12:24:00+00:00,43.0,4.83,41.0,5.53,13.68,47.59359,-54.27349
2022-09-09 12:34:00+00:00,50.0,4.97,48.0,5.54,13.68,47.59359,-54.27349
2022-09-09 12:44:00+00:00,56.0,4.52,60.0,5.15,13.68,47.59359,-54.27349
2022-09-09 12:54:00+00:00,56.0,4.59,56.0,5.06,13.68,47.59359,-54.27349
2022-09-09 13:04:00+00:00,58.0,4.31,48.0,5.23,13.68,47.59359,-54.27349
2022-09-09 13:14:00+00:00,39.0,5.67,39.0,6.23,14.32,47.59359,-54.27349
2022-09-09 13:24:00+00:00,35.0,5.63,39.0,6.27,14.32,47.59359,-54.27349
2022-09-09 13:34:00+00:00,44.0,6.23,41.0,7.16,14.32,47.59359,-54.27349
2022-09-09 13:44:00+00:00,49.0,5.31,46.0,5.99,14.32,47.59359,-54.27349
2022-09-09 13:54:00+00:00,52.0,4.89,56.0,5.44,14.32,47.59359,-54.27349
2022-09-09 14:04:00+00:00,47.0,5.23,45.0,5.81,14.32,47.59359,-54.27349
2022-09-09 14:14:01+00:00,48.0,4.6,48.0,5.33,14.0,47.59359,-54.27349
2022-09-09 14:24:01+00:00,40.0,4.21,41.0,5.02,14.0,47.59359,-54.27349
2022-09-09 14:34:01+00:00,42.0,4.79,44.0,5.5,14.0,47.59359,-54.27349
2022-09-09 14:44:01+00:00,36.0,4.87,32.0,5.42,14.0,47.59359,-54.27349
2022-09-09 14:54:01+00:00,59.0,4.59,59.0,4.93,14.0,47.59359,-54.27349
2022-09-09 15:04:01+00:00,37.0,3.46,31.0,4.24,14.0,47.59359,-54.27349
2022-09-09 15:14:01+00:00,40.0,5.43,36.0,6.55,14.4,47.59359,-54.27349
2022-09-09 15:24:01+00:00,49.0,3.84,33.0,5.09,14.4,47.59359,-54.27349
2022-09-09 15:34:01+00:00,34.0,4.31,34.0,4.75,14.4,47.59359,-54.27349
2022-09-09 15:44:01+00:00,37.0,4.05,33.0,5.0,14.4,47.59359,-54.27349
2022-09-09 15:54:01+00:00,51.0,3.53,56.0,4.32,14.4,47.59359,-54.27349
2022-09-09 16:04:01+00:00,37.0,3.72,39.0,4.43,14.4,47.59359,-54.27349
2022-09-09 16:14:00+00:00,36.0,3.08,38.0,3.71,13.68,47.59359,-54.27349
2022-09-09 16:24:00+00:00,35.0,3.47,38.0,3.84,13.68,47.59359,-54.27349
2022-09-09 16:34:00+00:00,54.0,3.11,52.0,3.64,13.68,47.59359,-54.27349
2022-09-09 16:44:00+00:00,51.0,2.77,46.0,3.24,13.68,47.59359,-54.27349
2022-09-09 16:54:00+00:00,59.0,3.06,56.0,3.86,13.68,47.59359,-54.27349
2022-09-09 17:04:00+00:00,68.0,3.49,66.0,4.37,13.68,47.59359,-54.27349
2022-09-09 17:14:00+00:00,64.0,3.79,71.0,4.36,13.84,47.59359,-54.27349
2022-09-09 17:24:00+00:00,73.0,3.61,79.0,4.19,13.84,47.59359,-54.27349
2022-09-09 17:34:00+00:00,70.0,3.71,54.0,4.64,13.84,47.59359,-54.27349
2022-09-09 17:44:00+00:00,72.0,2.9,74.0,4.09,13.84,47.59359,-54.27349
2022-09-09 17:54:00+00:00,70.0,2.53,73.0,3.26,13.84,47.59359,-54.27349
2022-09-09 18:04:00+00:00,72.0,3.05,65.0,4.75,13.84,47.59359,-54.27349
2022-09-09 18:14:00+00:00,68.0,3.89,64.0,5.03,13.76,47.59359,-54.27349
2022-09-09 18:24:00+00:00,70.0,3.13,75.0,4.35,13.76,47.59359,-54.27349
2022-09-09 18:34:00+00:00,86.0,2.59,78.0,4.44,13.76,47.59359,-54.27349
2022-09-09 18:44:00+00:00,75.0,2.66,71.0,4.5,13.76,47.59359,-54.27349
2022-09-09 18:54:00+00:00,72.0,2.67,71.0,4.17,13.76,47.59359,-54.27349
2022-09-09 19:04:00+00:00,76.0,2.61,73.0,3.6,13.76,47.59359,-54.27349
2022-09-09 19:14:00+00:00,78.0,3.4,72.0,4.47,13.76,47.59359,-54.27349
2022-09-09 19:24:00+00:00,67.0,3.44,67.0,4.56,13.76,47.59359,-54.27349
2022-09-09 19:34:00+00:00,82.0,2.95,89.0,5.09,13.76,47.59359,-54.27349
2022-09-09 19:44:00+00:00,90.0,3.22,95.0,5.45,13.76,47.59359,-54.27349
2022-09-09 19:54:00+00:00,70.0,4.66,67.0,5.69,13.76,47.59359,-54.27349
2022-09-09 20:04:00+00:00,80.0,3.1,71.0,4.69,13.76,47.59359,-54.27349
2022-09-09 20:14:01+00:00,88.0,3.45,90.0,4.86,13.44,47.59359,-54.27349
2022-09-09 20:24:01+00:00,93.0,2.83,82.0,4.53,13.44,47.59359,-54.27349
2022-09-09 20:34:01+00:00,86.0,3.26,96.0,4.88,13.44,47.59359,-54.27349
2022-09-09 20:44:01+00:00,99.0,3.67,88.0,5.7,13.44,47.59359,-54.27349
2022-09-09 20:54:01+00:00,79.0,3.39,88.0,6.27,13.44,47.59359,-54.27349
2022-09-09 21:04:01+00:00,75.0,4.69,65.0,6.38,13.44,47.59359,-54.27349
2022-09-09 21:14:00+00:00,69.0,6.1,64.0,7.08,13.21,47.59359,-54.27349
2022-09-09 21:24:00+00:00,85.0,4.57,84.0,6.19,13.21,47.59359,-54.27349
2022-09-09 21:34:00+00:00,84.0,3.81,88.0,6.06,13.21,47.59359,-54.27349
2022-09-09 21:44:00+00:00,83.0,3.66,76.0,4.8,13.21,47.59359,-54.27349
2022-09-09 21:54:00+00:00,81.0,4.29,80.0,6.05,13.21,47.59359,-54.27349
2022-09-09 22:04:00+00:00,78.0,4.22,73.0,6.22,13.21,47.59359,-54.27349
2022-09-09 22:14:00+00:00,71.0,5.84,83.0,6.88,12.65,47.59359,-54.27349
2022-09-09 22:24:00+00:00,76.0,5.35,81.0,6.71,12.65,47.59359,-54.27349
2022-09-09 22:34:00+00:00,68.0,6.08,68.0,6.92,12.65,47.59359,-54.27349
2022-09-09 22:44:00+00:00,68.0,6.74,68.0,7.69,12.65,47.59359,-54.27349
2022-09-09 22:54:00+00:00,66.0,6.14,67.0,7.0,12.65,47.59359,-54.27349
2022-09-09 23:04:00+00:00,60.0,6.61,61.0,7.22,12.65,47.59359,-54.27349
2022-09-09 23:14:00+00:00,60.0,6.41,55.0,7.74,12.49,47.59359,-54.27349
2022-09-09 23:24:00+00:00,64.0,6.27,68.0,7.14,12.49,47.59359,-54.27349
2022-09-09 23:34:00+00:00,65.0,6.5,70.0,7.23,12.49,47.59359,-54.27349
2022-09-09 23:44:00+00:00,74.0,5.6,67.0,7.36,12.49,47.59359,-54.27349
2022-09-09 23:54:00+00:00,72.0,5.97,76.0,7.12,12.49,47.59359,-54.27349
